When you browse on this site, cookies collect data to enhance your experience and personalize the content and advertising you see.
Visit our Privacy Policy to learn more. By continuing to use the site, you agree to this use of cookies and data.
  • Em Portugal
  • Lista de países
  • Para 7 dias
  • Temperatura da água
  • Mapas de satélite
  • Mapa do tempo
  • Widgets de tempo
  • user-avatar
    Iniciar Sessão

    Previsão horária em Stojanowice

    Hoje, 17 Junho, Segunda-feira

    Tempo Temperatura Precipitação Vento Pressão Humidade
    00:00 +18°C° 0 mm 3 m/s 745 mmHg 94%
    01:00 +18°C° 0 mm 4 m/s 746 mmHg 93%
    02:00 +18°C° 0 mm 3 m/s 746 mmHg 93%
    03:00 +17°C° 0 mm 2 m/s 746 mmHg 92%
    04:00 +17°C° 0 mm 2 m/s 746 mmHg 92%
    05:00 +18°C° 0 mm 2 m/s 746 mmHg 88%
    06:00 +18°C° 0 mm 2 m/s 746 mmHg 83%
    07:00 +19°C° 0 mm 3 m/s 747 mmHg 79%
    08:00 +20°C° 0 mm 3 m/s 747 mmHg 72%
    09:00 +21°C° 0 mm 3 m/s 747 mmHg 65%
    10:00 +22°C° 0 mm 3 m/s 747 mmHg 59%
    11:00 +24°C° 0 mm 3 m/s 747 mmHg 57%
    12:00 +24°C° 0 mm 3 m/s 746 mmHg 55%
    13:00 +25°C° 0 mm 3 m/s 746 mmHg 53%
    14:00 +25°C° 0 mm 3 m/s 746 mmHg 55%
    15:00 +25°C° 0 mm 3 m/s 746 mmHg 57%
    16:00 +25°C° 0 mm 3 m/s 746 mmHg 59%
    17:00 +24°C° 0 mm 3 m/s 746 mmHg 65%
    18:00 +23°C° 0 mm 2 m/s 746 mmHg 71%
    19:00 +21°C° 0 mm 2 m/s 746 mmHg 77%
    20:00 +20°C° 0 mm 2 m/s 746 mmHg 80%
    21:00 +19°C° 0 mm 2 m/s 746 mmHg 83%
    22:00 +18°C° 0 mm 2 m/s 746 mmHg 86%
    23:00 +17°C° 0 mm 2 m/s 746 mmHg 89%

    Amanhã, 18 Junho, Terça-feira

    Tempo Temperatura Precipitação Vento Pressão Humidade
    00:00 +17°C° 0 mm 2 m/s 746 mmHg 92%
    01:00 +16°C° 0 mm 2 m/s 746 mmHg 95%
    02:00 +16°C° 0 mm 2 m/s 746 mmHg 95%
    03:00 +16°C° 0 mm 2 m/s 745 mmHg 96%
    04:00 +15°C° 0 mm 2 m/s 745 mmHg 96%
    05:00 +17°C° 0 mm 3 m/s 745 mmHg 92%
    06:00 +18°C° 0 mm 3 m/s 745 mmHg 88%
    07:00 +19°C° 0 mm 4 m/s 746 mmHg 83%
    08:00 +20°C° 0 mm 4 m/s 746 mmHg 82%
    09:00 +20°C° 0 mm 4 m/s 745 mmHg 81%
    10:00 +21°C° 0 mm 4 m/s 745 mmHg 80%
    11:00 +22°C° 0 mm 4 m/s 745 mmHg 78%
    12:00 +22°C° 0 mm 4 m/s 745 mmHg 76%
    13:00 +23°C° 0 mm 4 m/s 744 mmHg 73%
    14:00 +23°C° 0 mm 4 m/s 744 mmHg 75%
    15:00 +25°C° 0 mm 4 m/s 744 mmHg 76%
    16:00 +25°C° 0 mm 4 m/s 744 mmHg 77%
    17:00 +23°C° 0.2 mm 4 m/s 743 mmHg 79%
    18:00 +23°C° 0.2 mm 4 m/s 743 mmHg 82%
    19:00 +22°C° 0.2 mm 4 m/s 743 mmHg 84%
    20:00 +22°C° 1 mm 4 m/s 743 mmHg 87%
    21:00 +21°C° 1 mm 4 m/s 743 mmHg 90%
    22:00 +20°C° 1 mm 5 m/s 743 mmHg 93%
    23:00 +20°C° 0 mm 5 m/s 742 mmHg 94%

    Depois de amanhã, 19 Junho, Quarta-feira

    Tempo Temperatura Precipitação Vento Pressão Humidade
    00:00 +19°C° 0 mm 4 m/s 742 mmHg 94%
    01:00 +19°C° 0 mm 4 m/s 742 mmHg 95%
    02:00 +19°C° 0.1 mm 4 m/s 742 mmHg 96%
    03:00 +19°C° 0.1 mm 3 m/s 741 mmHg 96%
    04:00 +18°C° 0.1 mm 2 m/s 741 mmHg 97%
    05:00 +19°C° 0 mm 2 m/s 741 mmHg 93%
    06:00 +21°C° 0 mm 2 m/s 741 mmHg 90%
    07:00 +23°C° 0 mm 2 m/s 741 mmHg 86%
    08:00 +24°C° 0.2 mm 1 m/s 741 mmHg 81%
    09:00 +25°C° 0.2 mm 1 m/s 741 mmHg 75%
    10:00 +27°C° 0.2 mm 1 m/s 741 mmHg 70%
    11:00 +27°C° 1.2 mm 2 m/s 741 mmHg 68%
    12:00 +28°C° 1.2 mm 2 m/s 740 mmHg 66%
    13:00 +28°C° 1.2 mm 2 m/s 740 mmHg 64%
    14:00 +29°C° 0.2 mm 2 m/s 740 mmHg 62%
    15:00 +29°C° 0.2 mm 2 m/s 740 mmHg 60%
    16:00 +29°C° 0.2 mm 1 m/s 740 mmHg 58%
    17:00 +28°C° 0.1 mm 1 m/s 740 mmHg 64%
    18:00 +26°C° 0.1 mm 1 m/s 740 mmHg 70%
    19:00 +25°C° 0.1 mm 1 m/s 740 mmHg 76%
    20:00 +24°C° 0 mm 1 m/s 740 mmHg 79%
    21:00 +23°C° 0 mm 1 m/s 740 mmHg 81%
    22:00 +22°C° 0 mm 1 m/s 741 mmHg 84%
    23:00 +21°C° 0 mm 1 m/s 740 mmHg 84%

    20 Junho, Quinta-feira

    Tempo Temperatura Precipitação Vento Pressão Humidade
    00:00 +21°C° 0 mm 1 m/s 740 mmHg 85%
    01:00 +21°C° 0 mm 1 m/s 740 mmHg 85%
    02:00 +20°C° 0 mm 1 m/s 740 mmHg 85%
    03:00 +20°C° 0 mm 1 m/s 740 mmHg 85%
    04:00 +20°C° 0 mm 1 m/s 741 mmHg 85%
    05:00 +22°C° 0 mm 1 m/s 741 mmHg 82%
    06:00 +23°C° 0 mm 1 m/s 741 mmHg 78%
    07:00 +25°C° 0 mm 1 m/s 741 mmHg 74%
    08:00 +26°C° 0 mm 1 m/s 741 mmHg 70%
    09:00 +27°C° 0 mm 1 m/s 741 mmHg 65%
    10:00 +27°C° 0 mm 0 m/s 741 mmHg 61%
    11:00 +29°C° 0.4 mm 1 m/s 741 mmHg 59%
    12:00 +29°C° 0.4 mm 1 m/s 741 mmHg 58%
    13:00 +30°C° 0.4 mm 1 m/s 741 mmHg 56%
    14:00 +28°C° 1.2 mm 2 m/s 741 mmHg 64%
    15:00 +26°C° 1.2 mm 2 m/s 741 mmHg 72%
    16:00 +25°C° 1.2 mm 2 m/s 741 mmHg 80%
    17:00 +24°C° 0.4 mm 2 m/s 741 mmHg 80%
    18:00 +24°C° 0.4 mm 1 m/s 741 mmHg 81%
    19:00 +23°C° 0.4 mm 1 m/s 741 mmHg 81%
    20:00 +22°C° 0.2 mm 1 m/s 741 mmHg 84%
    21:00 +21°C° 0.2 mm 1 m/s 741 mmHg 87%
    22:00 +20°C° 0.2 mm 1 m/s 741 mmHg 90%
    23:00 +20°C° 0 mm 1 m/s 741 mmHg 91%

    21 Junho, Sexta-feira

    Tempo Temperatura Precipitação Vento Pressão Humidade
    00:00 +20°C° 0 mm 1 m/s 741 mmHg 92%
    01:00 +20°C° 0 mm 1 m/s 741 mmHg 93%
    02:00 +20°C° 0 mm 1 m/s 741 mmHg 93%
    03:00 +19°C° 0 mm 1 m/s 741 mmHg 93%
    04:00 +19°C° 0 mm 1 m/s 741 mmHg 94%
    05:00 +21°C° 0 mm 1 m/s 741 mmHg 91%
    06:00 +22°C° 0 mm 1 m/s 742 mmHg 87%
    07:00 +23°C° 0 mm 2 m/s 742 mmHg 84%
    08:00 +25°C° 0 mm 2 m/s 742 mmHg 79%
    09:00 +26°C° 0 mm 1 m/s 742 mmHg 73%
    10:00 +27°C° 0 mm 1 m/s 742 mmHg 67%
    11:00 +28°C° 0 mm 1 m/s 742 mmHg 63%
    12:00 +29°C° 0 mm 1 m/s 741 mmHg 59%
    13:00 +30°C° 0 mm 1 m/s 741 mmHg 55%
    14:00 +30°C° 0.1 mm 1 m/s 741 mmHg 56%
    15:00 +30°C° 0.1 mm 1 m/s 741 mmHg 57%
    16:00 +30°C° 0.1 mm 1 m/s 741 mmHg 57%
    17:00 +29°C° 0.1 mm 1 m/s 741 mmHg 62%
    18:00 +27°C° 0.1 mm 1 m/s 741 mmHg 67%
    19:00 +26°C° 0.1 mm 1 m/s 741 mmHg 72%
    20:00 +25°C° 0.2 mm 1 m/s 741 mmHg 75%
    21:00 +24°C° 0.2 mm 1 m/s 741 mmHg 78%
    22:00 +23°C° 0.2 mm 1 m/s 741 mmHg 81%
    23:00 +22°C° 0.1 mm 1 m/s 741 mmHg 84%

    22 Junho, Sábado

    Tempo Temperatura Precipitação Vento Pressão Humidade
    00:00 +21°C° 0.1 mm 1 m/s 741 mmHg 87%
    01:00 +21°C° 0.1 mm 1 m/s 741 mmHg 90%
    02:00 +21°C° 0 mm 1 m/s 741 mmHg 90%
    03:00 +20°C° 0 mm 1 m/s 740 mmHg 91%
    04:00 +20°C° 0 mm 1 m/s 740 mmHg 92%
    05:00 +21°C° 0 mm 1 m/s 740 mmHg 88%
    06:00 +23°C° 0 mm 1 m/s 740 mmHg 84%
    07:00 +24°C° 0 mm 1 m/s 740 mmHg 80%
    08:00 +26°C° 0 mm 2 m/s 740 mmHg 75%
    09:00 +27°C° 0 mm 2 m/s 740 mmHg 69%
    10:00 +28°C° 0 mm 2 m/s 740 mmHg 64%
    11:00 +29°C° 0 mm 2 m/s 740 mmHg 59%
    12:00 +30°C° 0 mm 1 m/s 740 mmHg 55%
    13:00 +31°C° 0 mm 1 m/s 740 mmHg 50%
    14:00 +31°C° 0 mm 1 m/s 739 mmHg 52%
    15:00 +31°C° 0 mm 1 m/s 739 mmHg 53%
    16:00 +31°C° 0 mm 1 m/s 739 mmHg 55%
    17:00 +29°C° 0.3 mm 2 m/s 739 mmHg 63%
    18:00 +27°C° 0.3 mm 3 m/s 739 mmHg 70%
    19:00 +26°C° 0.3 mm 3 m/s 739 mmHg 78%
    20:00 +24°C° 0.3 mm 3 m/s 739 mmHg 81%
    21:00 +21°C° 0.3 mm 3 m/s 740 mmHg 84%
    22:00 +20°C° 0.3 mm 4 m/s 740 mmHg 87%
    23:00 +19°C° 0 mm 4 m/s 740 mmHg 87%
    Mostrar mais